RYR5325 LZKZ-EIDW

Flight info

Callsign RYR5325
Flight time N/A
Altitude 38000
Route TAKOS DCT MAKAL DCT ELMEK DCT VEXIL DCT KATCE DCT RAVLO Y70 OTBED L60 PENIL UL28 LELDO M145 BAGSO BAGSO4L
Aircraft B38M/M-SADE3FGILRWYSB1/LB1

Departure

Time N/A
Airport Košice International Airport (LZKZ)

Arrival

Time 2026-05-06 19:35
Airport Dublin Airport (EIDW)
Time Latitude Longitude Altitude Speed Heading
2026-05-06 16:58 48.70402 20.52418 19368 ft 378 kts 287°
2026-05-06 16:58 48.71305 20.48692 19873 ft 381 kts 287°
2026-05-06 16:58 48.72215 20.44935 20396 ft 384 kts 287°
2026-05-06 16:58 48.73135 20.41119 20930 ft 387 kts 287°
2026-05-06 16:59 48.74101 20.37307 21443 ft 391 kts 288°
2026-05-06 16:59 48.75089 20.33456 21922 ft 393 kts 288°
2026-05-06 16:59 48.76072 20.29597 22464 ft 396 kts 288°
2026-05-06 16:59 48.77065 20.25686 22942 ft 400 kts 288°
2026-05-06 17:00 48.78064 20.21742 23447 ft 402 kts 288°
2026-05-06 17:00 48.79065 20.17780 23903 ft 403 kts 288°
2026-05-06 17:00 48.80073 20.13793 24342 ft 406 kts 288°
2026-05-06 17:00 48.81083 20.09782 24768 ft 409 kts 288°
2026-05-06 17:01 48.82099 20.05745 25246 ft 410 kts 288°
2026-05-06 17:01 48.83116 20.01695 25661 ft 413 kts 288°
2026-05-06 17:01 48.84142 19.97601 26089 ft 415 kts 288°
2026-05-06 17:01 48.85168 19.93501 26520 ft 416 kts 288°
2026-05-06 17:02 48.86195 19.89384 26949 ft 418 kts 288°
2026-05-06 17:02 48.87228 19.85242 27364 ft 420 kts 288°
2026-05-06 17:02 48.88263 19.81086 27766 ft 422 kts 288°
2026-05-06 17:02 48.89300 19.76905 28183 ft 424 kts 288°
2026-05-06 17:03 48.90341 19.72708 28547 ft 426 kts 288°
2026-05-06 17:03 48.91386 19.68484 28960 ft 427 kts 287°
2026-05-06 17:03 48.92432 19.64249 29367 ft 429 kts 287°
2026-05-06 17:03 48.93482 19.59989 29728 ft 431 kts 287°
2026-05-06 17:04 48.94534 19.55712 30100 ft 433 kts 287°
2026-05-06 17:04 48.95584 19.51434 30461 ft 433 kts 287°
2026-05-06 17:04 48.96640 19.47127 30713 ft 435 kts 287°
2026-05-06 17:04 48.97695 19.42814 31114 ft 434 kts 287°
2026-05-06 17:05 48.98743 19.38520 31629 ft 430 kts 287°
2026-05-06 17:05 48.99778 19.34273 32116 ft 426 kts 287°
2026-05-06 17:05 49.00801 19.30065 32693 ft 422 kts 287°
2026-05-06 17:05 49.01815 19.25889 33239 ft 418 kts 287°
2026-05-06 17:06 49.02814 19.21763 33776 ft 413 kts 287°
2026-05-06 17:06 49.03800 19.17686 34266 ft 409 kts 287°
2026-05-06 17:06 49.04767 19.13677 34600 ft 408 kts 287°
2026-05-06 17:06 49.05745 19.09616 34832 ft 409 kts 287°
2026-05-06 17:07 49.06726 19.05539 35075 ft 410 kts 286°
2026-05-06 17:07 49.07704 19.01461 35309 ft 410 kts 286°
2026-05-06 17:07 49.08683 18.97377 35532 ft 411 kts 286°
2026-05-06 17:07 49.09660 18.93291 35768 ft 412 kts 286°
2026-05-06 17:08 49.10637 18.89199 35991 ft 412 kts 286°
2026-05-06 17:08 49.11616 18.85085 36170 ft 413 kts 286°
2026-05-06 17:08 49.12597 18.80960 36363 ft 414 kts 285°
2026-05-06 17:08 49.13579 18.76825 36597 ft 415 kts 285°
2026-05-06 17:09 49.14563 18.72672 36770 ft 416 kts 285°
2026-05-06 17:09 49.15545 18.68518 36993 ft 416 kts 285°
2026-05-06 17:09 49.16527 18.64354 37216 ft 416 kts 285°
2026-05-06 17:09 49.17499 18.60228 37410 ft 417 kts 285°
2026-05-06 17:10 49.18483 18.56043 37614 ft 418 kts 285°
2026-05-06 17:10 49.19462 18.51868 37780 ft 418 kts 285°
2026-05-06 17:10 49.20440 18.47693 37840 ft 419 kts 285°
2026-05-06 17:11 49.22396 18.39316 37834 ft 417 kts 285°
2026-05-06 17:11 49.24340 18.30959 37835 ft 417 kts 285°
2026-05-06 17:12 49.26279 18.22585 37824 ft 418 kts 285°
2026-05-06 17:12 49.28209 18.14222 37809 ft 418 kts 285°
2026-05-06 17:13 49.30134 18.05850 37802 ft 417 kts 285°
2026-05-06 17:13 49.32051 17.97476 37802 ft 417 kts 284°
2026-05-06 17:14 49.33963 17.89093 37788 ft 416 kts 284°
2026-05-06 17:14 49.35870 17.80698 37788 ft 417 kts 284°
2026-05-06 17:15 49.37766 17.72315 37792 ft 417 kts 284°
2026-05-06 17:15 49.39659 17.63917 37792 ft 416 kts 284°
2026-05-06 17:16 49.41541 17.55531 37779 ft 416 kts 284°
2026-05-06 17:16 49.43422 17.47120 37774 ft 416 kts 284°
2026-05-06 17:17 49.45298 17.38693 37774 ft 416 kts 284°
2026-05-06 17:17 49.47166 17.30274 37777 ft 416 kts 284°
2026-05-06 17:18 49.49028 17.21840 37789 ft 416 kts 284°
2026-05-06 17:18 49.50883 17.13409 37770 ft 416 kts 283°
2026-05-06 17:19 49.52734 17.04963 37763 ft 416 kts 283°
2026-05-06 17:19 49.54576 16.96521 37765 ft 416 kts 283°
2026-05-06 17:20 49.56408 16.88090 37752 ft 416 kts 283°
2026-05-06 17:20 49.58234 16.79646 37774 ft 417 kts 283°
2026-05-06 17:21 49.60067 16.71148 37757 ft 418 kts 283°
2026-05-06 17:21 49.61892 16.62646 37755 ft 418 kts 283°
2026-05-06 17:22 49.63700 16.54185 37744 ft 418 kts 283°
2026-05-06 17:22 49.65515 16.45659 37748 ft 418 kts 283°
2026-05-06 17:23 49.67336 16.37067 37755 ft 420 kts 282°
2026-05-06 17:23 49.69146 16.28490 37751 ft 421 kts 282°
2026-05-06 17:24 49.70957 16.19875 37744 ft 421 kts 282°
2026-05-06 17:24 49.72747 16.11321 37750 ft 421 kts 282°
2026-05-06 17:25 49.74541 16.02710 37737 ft 421 kts 282°
2026-05-06 17:25 49.76345 15.94015 37737 ft 423 kts 282°
2026-05-06 17:26 49.78129 15.85382 37744 ft 425 kts 282°
2026-05-06 17:26 49.79916 15.76692 37756 ft 424 kts 282°
2026-05-06 17:27 49.81698 15.67992 37742 ft 424 kts 282°
2026-05-06 17:27 49.83470 15.59300 37742 ft 424 kts 282°
2026-05-06 17:28 49.84943 15.52042 37741 ft 426 kts 282°
2026-05-06 17:28 49.86719 15.43261 37740 ft 427 kts 282°
2026-05-06 17:29 49.88452 15.34659 37741 ft 427 kts 282°
2026-05-06 17:29 49.90214 15.25866 37745 ft 427 kts 282°
2026-05-06 17:30 49.91963 15.17100 37752 ft 427 kts 281°
2026-05-06 17:30 49.93717 15.08272 37751 ft 429 kts 281°
2026-05-06 17:31 49.95467 14.99423 37747 ft 429 kts 281°
2026-05-06 17:31 49.97213 14.90552 37749 ft 429 kts 281°
2026-05-06 17:32 49.98950 14.81684 37747 ft 429 kts 281°
2026-05-06 17:32 50.00682 14.72807 37768 ft 429 kts 281°
2026-05-06 17:33 50.02396 14.63978 37743 ft 432 kts 281°
2026-05-06 17:33 50.04119 14.55056 37739 ft 432 kts 281°
2026-05-06 17:34 50.05818 14.46223 37744 ft 432 kts 281°
2026-05-06 17:34 50.07531 14.37275 37746 ft 432 kts 281°
2026-05-06 17:35 50.09238 14.28321 37759 ft 432 kts 281°
2026-05-06 17:35 50.10940 14.19339 37748 ft 433 kts 281°
2026-05-06 17:36 50.13483 14.05852 37746 ft 433 kts 281°
2026-05-06 17:36 50.15168 13.96858 37735 ft 433 kts 281°
2026-05-06 17:37 50.16846 13.87857 37744 ft 433 kts 281°
2026-05-06 17:37 50.18521 13.78828 37747 ft 433 kts 281°
2026-05-06 17:38 50.20188 13.69800 37737 ft 433 kts 281°
2026-05-06 17:38 50.21849 13.60758 37736 ft 433 kts 281°
2026-05-06 17:39 50.23493 13.51768 37735 ft 433 kts 281°
2026-05-06 17:39 50.25139 13.42719 37734 ft 433 kts 281°
2026-05-06 17:40 50.26774 13.33688 37735 ft 433 kts 281°
2026-05-06 17:40 50.28398 13.24674 37734 ft 433 kts 281°
2026-05-06 17:41 50.30005 13.15709 37742 ft 433 kts 281°
2026-05-06 17:41 50.31625 13.06628 37768 ft 433 kts 280°
2026-05-06 17:42 50.33235 12.97554 37775 ft 434 kts 280°
2026-05-06 17:42 50.34845 12.88437 37767 ft 436 kts 280°
2026-05-06 17:43 50.36445 12.79321 37760 ft 435 kts 280°
2026-05-06 17:43 50.38045 12.70167 37765 ft 435 kts 280°
2026-05-06 17:44 50.40103 12.61245 37750 ft 444 kts 296°
2026-05-06 17:44 50.43310 12.52937 37752 ft 445 kts 296°
2026-05-06 17:45 50.46521 12.44678 37750 ft 444 kts 296°
2026-05-06 17:45 50.49742 12.36409 37746 ft 444 kts 296°
2026-05-06 17:46 50.52949 12.28156 37753 ft 444 kts 296°
2026-05-06 17:46 50.56162 12.19858 37749 ft 444 kts 296°
2026-05-06 17:47 50.59369 12.11553 37762 ft 445 kts 296°
2026-05-06 17:47 50.62575 12.03222 37754 ft 445 kts 296°
2026-05-06 17:48 50.65778 11.94870 37757 ft 445 kts 296°
2026-05-06 17:48 50.68976 11.86507 37760 ft 445 kts 296°
2026-05-06 17:49 50.72168 11.78131 37758 ft 445 kts 296°
2026-05-06 17:49 50.75354 11.69745 37767 ft 447 kts 296°
2026-05-06 17:50 50.78546 11.61315 37762 ft 447 kts 296°
2026-05-06 17:50 50.81733 11.52870 37766 ft 447 kts 296°
2026-05-06 17:51 50.84908 11.44429 37762 ft 447 kts 296°
2026-05-06 17:51 50.88082 11.35963 37765 ft 447 kts 296°
2026-05-06 17:52 50.91252 11.27481 37772 ft 448 kts 296°
2026-05-06 17:52 50.94414 11.18990 37770 ft 448 kts 296°
2026-05-06 17:53 50.97577 11.10470 37774 ft 448 kts 296°
2026-05-06 17:53 51.00731 11.01946 37774 ft 448 kts 296°
2026-05-06 17:54 51.03859 10.93466 37775 ft 448 kts 296°
2026-05-06 17:54 51.07026 10.84848 37791 ft 449 kts 296°
2026-05-06 17:55 51.10173 10.76256 37776 ft 450 kts 296°
2026-05-06 17:55 51.13286 10.67732 37781 ft 450 kts 296°
2026-05-06 17:56 51.16427 10.59100 37772 ft 450 kts 296°
2026-05-06 17:56 51.19552 10.50487 37798 ft 450 kts 296°
2026-05-06 17:57 51.22679 10.41847 37781 ft 450 kts 296°
2026-05-06 17:57 51.25630 10.33122 37782 ft 446 kts 289°
2026-05-06 17:58 51.28105 10.24034 37783 ft 447 kts 289°
2026-05-06 17:58 51.30562 10.14930 37796 ft 447 kts 289°
2026-05-06 17:59 51.33011 10.05810 37807 ft 446 kts 289°
2026-05-06 17:59 51.35455 9.96671 37797 ft 446 kts 289°
2026-05-06 18:00 51.37858 9.87653 37801 ft 446 kts 289°
2026-05-06 18:00 51.40300 9.78448 37815 ft 446 kts 289°
2026-05-06 18:01 51.42718 9.69300 37799 ft 446 kts 289°
2026-05-06 18:01 51.45130 9.60138 37813 ft 446 kts 289°
2026-05-06 18:02 51.47534 9.50967 37801 ft 446 kts 289°
2026-05-06 18:02 51.49931 9.41784 37792 ft 446 kts 289°
2026-05-06 18:03 51.52315 9.32617 37806 ft 446 kts 289°
2026-05-06 18:03 51.54681 9.23485 37821 ft 446 kts 289°
2026-05-06 18:04 51.57057 9.14273 37807 ft 446 kts 289°
2026-05-06 18:04 51.59401 9.05149 37823 ft 446 kts 289°
2026-05-06 18:05 51.61759 8.95935 37821 ft 446 kts 289°
2026-05-06 18:05 51.64109 8.86711 37835 ft 446 kts 289°
2026-05-06 18:06 51.66450 8.77486 37831 ft 446 kts 289°
2026-05-06 18:06 51.68786 8.68245 37833 ft 445 kts 289°
2026-05-06 18:07 51.71108 8.59015 37827 ft 444 kts 289°
2026-05-06 18:07 51.73424 8.49776 37840 ft 444 kts 289°
2026-05-06 18:08 51.75727 8.40548 37853 ft 444 kts 289°
2026-05-06 18:08 51.78024 8.31307 37855 ft 444 kts 289°
2026-05-06 18:09 51.80321 8.22032 37859 ft 445 kts 289°
2026-05-06 18:09 51.82612 8.12734 37863 ft 445 kts 289°
2026-05-06 18:10 51.84898 8.03422 37866 ft 446 kts 289°
2026-05-06 18:10 51.87178 7.94094 37868 ft 446 kts 289°
2026-05-06 18:11 51.89065 7.86343 37874 ft 445 kts 288°
2026-05-06 18:11 51.91708 7.75440 37880 ft 446 kts 289°
2026-05-06 18:12 51.93966 7.66081 37882 ft 446 kts 289°
2026-05-06 18:12 51.95791 7.58487 37886 ft 446 kts 289°
2026-05-06 18:13 51.97969 7.49391 37887 ft 446 kts 288°
2026-05-06 18:13 52.00208 7.40002 37883 ft 446 kts 288°
2026-05-06 18:14 52.02438 7.30609 37884 ft 446 kts 288°
2026-05-06 18:14 52.04653 7.21237 37883 ft 446 kts 288°
2026-05-06 18:15 52.06869 7.11820 37887 ft 446 kts 288°
2026-05-06 18:15 52.09077 7.02395 37883 ft 446 kts 288°
2026-05-06 18:16 52.11275 6.92974 37885 ft 446 kts 288°
2026-05-06 18:16 52.13466 6.83544 37899 ft 446 kts 288°
2026-05-06 18:17 52.15648 6.74105 37892 ft 445 kts 288°
2026-05-06 18:17 52.17824 6.64650 37898 ft 445 kts 288°
2026-05-06 18:18 52.19991 6.55196 37907 ft 446 kts 288°
2026-05-06 18:18 52.22152 6.45723 37906 ft 445 kts 288°
2026-05-06 18:19 52.24303 6.36255 37910 ft 445 kts 288°
2026-05-06 18:19 52.26447 6.26774 37915 ft 445 kts 288°
2026-05-06 18:20 52.28579 6.17298 37910 ft 445 kts 288°
2026-05-06 18:20 52.30708 6.07798 37910 ft 445 kts 288°
2026-05-06 18:21 52.32827 5.98298 37916 ft 445 kts 288°
2026-05-06 18:21 52.34935 5.88808 37913 ft 444 kts 288°
2026-05-06 18:22 52.37032 5.79317 37916 ft 443 kts 288°
2026-05-06 18:22 52.39116 5.69845 37922 ft 443 kts 288°
2026-05-06 18:23 52.41178 5.60432 37913 ft 442 kts 288°
2026-05-06 18:23 52.43244 5.50953 37910 ft 442 kts 288°
2026-05-06 18:24 52.45305 5.41461 37915 ft 442 kts 288°
2026-05-06 18:24 52.47354 5.31974 37916 ft 441 kts 288°
2026-05-06 18:25 52.49396 5.22477 37920 ft 441 kts 288°
2026-05-06 18:25 52.51429 5.12977 37924 ft 441 kts 287°
2026-05-06 18:26 52.53456 5.03459 37927 ft 441 kts 287°
2026-05-06 18:26 52.55474 4.93944 37932 ft 441 kts 287°
2026-05-06 18:27 52.57482 4.84427 37927 ft 440 kts 287°
2026-05-06 18:27 52.59481 4.74907 37929 ft 441 kts 287°
2026-05-06 18:28 52.61473 4.65379 37934 ft 440 kts 287°
2026-05-06 18:28 52.63457 4.55843 37941 ft 440 kts 287°
2026-05-06 18:29 52.65394 4.46488 37947 ft 440 kts 287°
2026-05-06 18:29 52.67363 4.36933 37954 ft 441 kts 287°
2026-05-06 18:30 52.69324 4.27370 37967 ft 440 kts 287°
2026-05-06 18:30 52.71275 4.17813 37961 ft 439 kts 287°
2026-05-06 18:31 52.73214 4.08268 37960 ft 439 kts 287°
2026-05-06 18:31 52.75148 3.98700 37974 ft 440 kts 287°
2026-05-06 18:32 52.77074 3.89127 37970 ft 438 kts 286°
2026-05-06 18:32 52.78990 3.79569 37975 ft 438 kts 286°
2026-05-06 18:33 52.80895 3.70026 37975 ft 438 kts 286°
2026-05-06 18:33 52.82795 3.60456 37982 ft 438 kts 286°
2026-05-06 18:34 52.84691 3.50866 37995 ft 439 kts 286°
2026-05-06 18:34 52.86578 3.41277 37978 ft 438 kts 286°
2026-05-06 18:35 52.88455 3.31697 37974 ft 437 kts 286°
2026-05-06 18:35 52.90327 3.22094 37980 ft 438 kts 286°
2026-05-06 18:36 52.91985 3.12400 37977 ft 436 kts 278°
2026-05-06 18:36 52.93202 3.02544 37993 ft 437 kts 281°
2026-05-06 18:37 52.94279 2.94359 37997 ft 438 kts 281°
2026-05-06 18:37 52.95806 2.82812 37997 ft 439 kts 281°
2026-05-06 18:38 52.97105 2.72922 37995 ft 439 kts 281°
2026-05-06 18:38 52.98396 2.63037 38012 ft 438 kts 281°
2026-05-06 18:39 52.99677 2.53159 38011 ft 438 kts 281°
2026-05-06 18:40 53.01578 2.38360 38004 ft 437 kts 281°
2026-05-06 18:40 53.02825 2.28572 38004 ft 437 kts 281°
2026-05-06 18:41 53.04074 2.18699 38009 ft 437 kts 281°
2026-05-06 18:41 53.05314 2.08810 38010 ft 437 kts 280°
2026-05-06 18:42 53.06529 1.98910 38016 ft 437 kts 280°
2026-05-06 18:42 53.07739 1.89001 38015 ft 438 kts 280°
2026-05-06 18:43 53.08942 1.79081 38011 ft 438 kts 280°
2026-05-06 18:43 53.10136 1.69156 38015 ft 438 kts 280°
2026-05-06 18:44 53.11323 1.59216 38021 ft 438 kts 280°
2026-05-06 18:44 53.12500 1.49296 38019 ft 438 kts 280°
2026-05-06 18:45 53.13660 1.39433 38024 ft 436 kts 280°
2026-05-06 18:45 53.14820 1.29500 38026 ft 437 kts 280°
2026-05-06 18:46 53.15972 1.19563 38025 ft 437 kts 280°
2026-05-06 18:46 53.17113 1.09632 38026 ft 436 kts 280°
2026-05-06 18:47 53.18248 0.99689 38023 ft 437 kts 280°
2026-05-06 18:47 53.19374 0.89739 38027 ft 436 kts 280°
2026-05-06 18:48 53.20492 0.79790 38032 ft 436 kts 280°
2026-05-06 18:48 53.21600 0.69854 38029 ft 436 kts 280°
2026-05-06 18:49 53.22702 0.59897 38039 ft 436 kts 279°
2026-05-06 18:49 53.23792 0.49931 38031 ft 436 kts 280°
2026-05-06 18:50 53.24877 0.39948 38047 ft 439 kts 280°
2026-05-06 18:50 53.25958 0.29924 38050 ft 438 kts 280°
2026-05-06 18:51 53.27029 0.19909 38050 ft 438 kts 280°
2026-05-06 18:51 53.28086 0.09945 38054 ft 438 kts 279°
2026-05-06 18:52 53.29139 -0.00075 38056 ft 438 kts 279°
2026-05-06 18:52 53.30185 -0.10113 38054 ft 438 kts 280°
2026-05-06 18:53 53.31221 -0.20134 38050 ft 438 kts 279°
2026-05-06 18:53 53.32249 -0.30175 38052 ft 438 kts 279°
2026-05-06 18:54 53.33269 -0.40212 38051 ft 438 kts 279°
2026-05-06 18:54 53.34286 -0.50320 38050 ft 438 kts 279°
2026-05-06 18:55 53.35288 -0.60360 38055 ft 438 kts 279°
2026-05-06 18:55 53.36284 -0.70413 38052 ft 438 kts 279°
2026-05-06 18:56 53.37261 -0.80380 38053 ft 438 kts 279°
2026-05-06 18:56 53.38241 -0.90453 38058 ft 438 kts 279°
2026-05-06 18:57 53.39210 -1.00519 38058 ft 438 kts 279°
2026-05-06 18:57 53.40172 -1.10595 38056 ft 437 kts 279°
2026-05-06 18:58 53.40964 -1.18962 38056 ft 437 kts 279°
2026-05-06 18:58 53.41906 -1.29024 38053 ft 437 kts 279°
2026-05-06 18:59 53.42842 -1.39098 38052 ft 437 kts 279°
2026-05-06 18:59 53.43765 -1.49141 38048 ft 437 kts 279°
2026-05-06 19:00 53.44683 -1.59212 38042 ft 438 kts 279°
2026-05-06 19:00 53.45591 -1.69278 38048 ft 438 kts 279°
2026-05-06 19:01 53.46495 -1.79395 38050 ft 438 kts 279°
2026-05-06 19:01 53.47388 -1.89494 38037 ft 438 kts 279°
2026-05-06 19:02 53.48275 -1.99613 38032 ft 438 kts 278°
2026-05-06 19:02 53.49153 -2.09741 38023 ft 438 kts 279°
2026-05-06 19:03 53.50022 -2.19870 38025 ft 438 kts 278°
2026-05-06 19:03 53.50882 -2.30001 38023 ft 438 kts 278°
2026-05-06 19:04 53.51735 -2.40155 38026 ft 438 kts 278°
2026-05-06 19:04 53.52579 -2.50294 38020 ft 438 kts 278°
2026-05-06 19:05 53.53411 -2.60408 38016 ft 438 kts 278°
2026-05-06 19:05 53.54238 -2.70575 38013 ft 439 kts 278°
2026-05-06 19:06 53.55056 -2.80737 38010 ft 439 kts 278°
2026-05-06 19:06 53.55947 -2.90877 38003 ft 438 kts 284°
2026-05-06 19:07 53.56945 -3.00907 38035 ft 438 kts 279°
2026-05-06 19:07 53.57858 -3.11125 37998 ft 438 kts 279°
2026-05-06 19:08 53.58806 -3.21270 38013 ft 439 kts 279°
2026-05-06 19:08 53.59748 -3.31346 38009 ft 439 kts 279°
2026-05-06 19:09 53.60688 -3.41485 38010 ft 439 kts 279°
2026-05-06 19:09 53.61621 -3.51644 38010 ft 439 kts 279°
2026-05-06 19:10 53.62546 -3.61818 38003 ft 439 kts 279°
2026-05-06 19:10 53.63462 -3.71994 38007 ft 440 kts 279°
2026-05-06 19:11 53.64370 -3.82184 37969 ft 438 kts 279°
2026-05-06 19:11 53.64818 -3.87232 37333 ft 435 kts 279°
2026-05-06 19:11 53.65264 -3.92289 36494 ft 438 kts 280°
2026-05-06 19:11 53.65710 -3.97379 35744 ft 439 kts 281°
2026-05-06 19:12 53.66155 -4.02487 35042 ft 440 kts 281°
2026-05-06 19:12 53.66598 -4.07593 34322 ft 441 kts 282°
2026-05-06 19:12 53.67041 -4.12726 33459 ft 444 kts 282°
2026-05-06 19:12 53.67481 -4.17882 32587 ft 445 kts 282°
2026-05-06 19:13 53.67921 -4.23047 31950 ft 442 kts 282°
2026-05-06 19:13 53.68353 -4.28137 31455 ft 436 kts 281°
2026-05-06 19:13 53.68778 -4.33174 30943 ft 431 kts 281°
2026-05-06 19:13 53.69196 -4.38151 30357 ft 428 kts 281°
2026-05-06 19:14 53.69611 -4.43106 29709 ft 425 kts 280°
2026-05-06 19:14 53.70021 -4.48032 29094 ft 422 kts 280°
2026-05-06 19:14 53.70425 -4.52906 28522 ft 417 kts 280°
2026-05-06 19:14 53.70803 -4.57737 27949 ft 414 kts 277°
2026-05-06 19:15 53.70793 -4.62630 27006 ft 422 kts 267°
2026-05-06 19:15 53.70608 -4.67583 26284 ft 422 kts 269°
2026-05-06 19:15 53.70453 -4.72490 25811 ft 416 kts 269°
2026-05-06 19:15 53.70310 -4.77277 25292 ft 412 kts 269°
2026-05-06 19:16 53.70169 -4.82077 24756 ft 408 kts 268°
2026-05-06 19:16 53.70028 -4.86848 24224 ft 406 kts 268°
2026-05-06 19:16 53.69887 -4.91587 23702 ft 403 kts 268°
2026-05-06 19:16 53.69723 -4.96273 23312 ft 396 kts 264°
2026-05-06 19:17 53.69283 -5.00855 22563 ft 397 kts 262°
2026-05-06 19:17 53.68835 -5.05486 21619 ft 392 kts 262°
2026-05-06 19:17 53.68419 -5.09936 20784 ft 385 kts 262°
2026-05-06 19:17 53.68016 -5.14349 19975 ft 378 kts 262°
2026-05-06 19:18 53.67629 -5.18694 19204 ft 374 kts 262°
2026-05-06 19:18 53.67262 -5.23077 18503 ft 378 kts 262°
2026-05-06 19:18 53.66894 -5.27432 17993 ft 374 kts 262°
2026-05-06 19:18 53.66526 -5.31748 17493 ft 370 kts 262°
2026-05-06 19:19 53.66161 -5.36015 17060 ft 363 kts 262°
2026-05-06 19:19 53.65806 -5.40152 16659 ft 354 kts 262°
2026-05-06 19:19 53.65453 -5.44232 16235 ft 350 kts 262°
2026-05-06 19:19 53.65103 -5.48268 15819 ft 346 kts 262°
2026-05-06 19:20 53.64756 -5.52259 15413 ft 342 kts 262°
2026-05-06 19:20 53.64412 -5.56194 15000 ft 339 kts 262°
2026-05-06 19:20 53.64068 -5.60115 14601 ft 335 kts 261°
2026-05-06 19:20 53.63728 -5.63971 14202 ft 332 kts 261°
2026-05-06 19:21 53.63389 -5.67811 13811 ft 329 kts 261°
2026-05-06 19:21 53.63052 -5.71611 13379 ft 327 kts 261°
2026-05-06 19:21 53.62716 -5.75379 12961 ft 323 kts 261°
2026-05-06 19:21 53.62383 -5.79103 12572 ft 320 kts 261°
2026-05-06 19:22 53.62053 -5.82783 12187 ft 316 kts 261°
2026-05-06 19:22 53.61732 -5.86348 11822 ft 313 kts 261°
2026-05-06 19:22 53.61405 -5.89967 11443 ft 310 kts 261°
2026-05-06 19:22 53.61082 -5.93536 11073 ft 308 kts 261°
2026-05-06 19:23 53.60758 -5.97096 10742 ft 309 kts 261°
2026-05-06 19:23 53.60444 -6.00535 10573 ft 290 kts 261°
2026-05-06 19:23 53.60147 -6.03777 10440 ft 271 kts 261°
2026-05-06 19:23 53.59867 -6.06823 10305 ft 256 kts 261°
2026-05-06 19:24 53.59592 -6.09813 10185 ft 265 kts 261°
2026-05-06 19:24 53.59304 -6.12932 10052 ft 272 kts 261°
2026-05-06 19:24 53.59009 -6.16112 9784 ft 277 kts 261°
2026-05-06 19:24 53.58711 -6.19312 9446 ft 277 kts 261°
2026-05-06 19:25 53.58412 -6.22523 9124 ft 276 kts 261°
2026-05-06 19:25 53.58115 -6.25691 8800 ft 274 kts 261°
2026-05-06 19:25 53.57820 -6.28836 8511 ft 270 kts 260°
2026-05-06 19:25 53.57528 -6.31942 8218 ft 268 kts 260°
2026-05-06 19:26 53.57242 -6.34976 7938 ft 264 kts 260°
2026-05-06 19:26 53.56952 -6.38049 7664 ft 261 kts 260°
2026-05-06 19:26 53.56669 -6.41035 7391 ft 258 kts 260°
2026-05-06 19:26 53.56388 -6.43986 7120 ft 256 kts 260°
2026-05-06 19:27 53.56109 -6.46909 6826 ft 252 kts 260°
2026-05-06 19:27 53.55833 -6.49802 6563 ft 250 kts 259°
2026-05-06 19:27 53.55559 -6.52662 6373 ft 244 kts 259°
2026-05-06 19:27 53.55220 -6.55379 6188 ft 231 kts 249°
2026-05-06 19:28 53.54390 -6.57622 5797 ft 225 kts 227°
2026-05-06 19:28 53.53350 -6.59492 5431 ft 220 kts 228°
2026-05-06 19:28 53.52325 -6.61387 5032 ft 217 kts 228°
2026-05-06 19:28 53.51318 -6.63184 4845 ft 210 kts 221°
2026-05-06 19:29 53.50032 -6.64155 4682 ft 205 kts 187°
2026-05-06 19:29 53.48627 -6.64010 4517 ft 200 kts 172°
2026-05-06 19:29 53.47308 -6.63339 4349 ft 195 kts 158°
2026-05-06 19:29 53.46264 -6.61997 4185 ft 189 kts 134°
2026-05-06 19:30 53.45673 -6.60036 3942 ft 186 kts 105°
2026-05-06 19:30 53.45449 -6.57938 3715 ft 184 kts 99°
2026-05-06 19:30 53.45293 -6.55843 3488 ft 181 kts 98°
2026-05-06 19:30 53.45158 -6.53730 3255 ft 181 kts 97°
2026-05-06 19:31 53.45034 -6.51640 3008 ft 180 kts 97°
2026-05-06 19:31 53.44914 -6.49559 2776 ft 178 kts 97°
2026-05-06 19:31 53.44683 -6.45455 2292 ft 175 kts 98°
2026-05-06 19:32 53.44571 -6.43430 2052 ft 174 kts 98°
2026-05-06 19:32 53.44459 -6.41429 1811 ft 171 kts 97°
2026-05-06 19:32 53.44352 -6.39482 1612 ft 162 kts 97°
2026-05-06 19:32 53.44250 -6.37645 1387 ft 153 kts 98°
2026-05-06 19:33 53.44153 -6.35909 1181 ft 147 kts 98°
2026-05-06 19:33 53.44061 -6.34245 982 ft 141 kts 97°
2026-05-06 19:33 53.43970 -6.32616 757 ft 139 kts 96°
2026-05-06 19:33 53.43878 -6.31014 582 ft 137 kts 96°
2026-05-06 19:34 53.43791 -6.29406 395 ft 137 kts 96°
2026-05-06 19:34 53.43702 -6.27806 233 ft 137 kts 97°
2026-05-06 19:34 53.43625 -6.26414 215 ft 93 kts 95°
2026-05-06 19:34 53.43580 -6.25595 214 ft 54 kts 96°
2026-05-06 19:35 53.43519 -6.25199 215 ft 21 kts 118°
2026-05-06 19:35 53.43467 -6.25048 219 ft 6 kts 121°
2026-05-06 19:35 53.43458 -6.25023 214 ft 2 kts 121°
2026-05-06 19:35 53.43458 -6.25022 214 ft 0 kts 121°
2026-05-06 19:36 53.43452 -6.25005 214 ft 3 kts 122°
2026-05-06 19:36 53.43440 -6.24996 217 ft 3 kts 167°
2026-05-06 19:36 53.43385 -6.25046 213 ft 16 kts 242°
2026-05-06 19:36 53.43389 -6.25242 220 ft 18 kts 276°
2026-05-06 19:37 53.43402 -6.25469 217 ft 17 kts 275°
2026-05-06 19:37 53.43408 -6.25564 213 ft 6 kts 274°
2026-05-06 19:37 53.43386 -6.25645 219 ft 10 kts 213°
2026-05-06 19:37 53.43337 -6.25637 217 ft 13 kts 156°
2026-05-06 19:38 53.43196 -6.25535 217 ft 17 kts 156°
2026-05-06 19:38 53.43090 -6.25459 218 ft 16 kts 157°
2026-05-06 19:38 53.43012 -6.25403 213 ft 13 kts 157°
2026-05-06 19:38 53.42923 -6.25336 218 ft 15 kts 156°
2026-05-06 19:39 53.42832 -6.25270 216 ft 11 kts 156°
2026-05-06 19:39 53.42792 -6.25155 213 ft 13 kts 96°
2026-05-06 19:39 53.42818 -6.25041 213 ft 12 kts 35°
2026-05-06 19:39 53.42883 -6.24932 217 ft 14 kts 47°
2026-05-06 19:40 53.42931 -6.24845 213 ft 6 kts 50°
2026-05-06 19:40 53.42940 -6.24777 221 ft 5 kts 79°
2026-05-06 19:40 53.42963 -6.24753 216 ft 5 kts 11°
2026-05-06 19:40 53.42993 -6.24748 213 ft 2 kts
2026-05-06 19:41 53.42996 -6.24748 213 ft 0 kts